カタログに戻る

CZ-6A R/B

運用中LEO
NORAD 67434·ROCKET BODY·🇨🇳 China

打ち上げ Jan 13, 2026 から Taiyuan Satellite Launch Center

Loading…

次のパス (今後24時間)

TLE

最新Source: Space-Track

元期: Sep 14, 2026, 18:03 UTC

1 67434U 26006B   26257.75271974  .00000658  00000-0  47241-4 0  9993
2 67434 142.0454  92.5290 0200490  77.3877 284.9215 14.62656852 35764

AllMySatでCZ-6A R/Bをリアルタイム追跡

Download on the App Store